Home   Weather   May Pen   Past weeks

Flag for Jamaica Past Weather in May Pen, Jamaica — Yesterday and Last 2 Weeks

84 °F

Sprinkles. Broken clouds.

Feels Like: 92 °F
Forecast: 74 / 87 °F
Wind: 5 mph from Southeast

Location: Kingston / Norman Manley

Current Time: Oct 21, 2016 at 9:58:58 AM

Latest Report: Oct 21, 2016 at 9:00 AM

Visibility: N/A

Pressure: 29.83 "Hg

Humidity: 74%

Dew Point: 75 °F

Location of May PenLocation

Past Weather in May Pen — Graph


May Pen Temperature Yesterday

Maximum temperature yesterday: 88 °F (at 1:00 PM)
Minimum temperature yesterday: 79 °F (at 1:00 AM)
Average temperature yesterday: 82 °F

High & Low Weather Summary for the Past Weeks

High91 °F (Oct 13, 1:00 PM)100% (Oct 21, 7:00 AM)29.98 "Hg (Oct 21, 7:00 AM)
Low77 °F (Oct 19, 12:00 AM)59% (Oct 10, 2:00 PM)29.74 "Hg (Oct 17, 2:00 PM)
Average84 °F74%29.83 "Hg
* Reported Oct 6 8:00 AM — Oct 21 8:00 AM, May Pen, Weather by CustomWeather, © 2016

Note: Actual official high and low records may vary slightly from our data, if they occured in-between our weather recording intervals... More about our weather records


May Pen Weather History for the Previous 24 Hours

Scroll right to see more
Time TempWeatherWind HumidityBarometerVisibility
8:00 AM
Fri, Oct 21
84 °FScattered clouds.2 mph79%29.83 "HgN/A
7:00 AM79 °FScattered clouds.6 mph100%29.80 "HgN/A
6:00 AM81 °FPassing clouds.2 mph84%29.77 "HgN/A
5:00 AM81 °FPassing clouds.3 mph84%29.77 "HgN/A
4:00 AM81 °FPassing clouds.3 mph84%29.77 "HgN/A
3:00 AM79 °FPassing clouds.5 mph89%29.77 "HgN/A
2:00 AM81 °FPassing clouds.3 mph89%29.77 "HgN/A
1:00 AM79 °FPartly cloudy.2 mph94%29.77 "HgN/A
12:00 AM79 °FPassing clouds.3 mph89%29.80 "HgN/A
11:00 PM
Thu, Oct 20
79 °FPassing clouds.2 mph89%29.83 "HgN/A
10:00 PM81 °FScattered showers. Passing clouds.7 mph84%29.83 "HgN/A
9:00 PM81 °FScattered showers. Passing clouds.5 mph84%29.80 "HgN/A
8:00 PM82 °FPassing clouds.10 mph79%29.80 "HgN/A
7:00 PM84 °FPassing clouds.7 mph74%29.77 "HgN/A
6:00 PM84 °FPassing clouds.6 mph74%29.77 "HgN/A
5:00 PM84 °FPassing clouds.8 mph74%29.74 "HgN/A
4:00 PM86 °FPassing clouds.9 mph70%29.74 "HgN/A
3:00 PM86 °FPassing clouds.10 mph70%29.74 "HgN/A
2:00 PM86 °FPassing clouds.9 mph70%29.74 "HgN/A
1:00 PM88 °FPassing clouds.8 mph66%29.77 "HgN/A
12:00 PM84 °FPassing clouds.8 mph74%29.77 "HgN/A
11:00 AM82 °FPartly sunny.9 mph79%29.80 "HgN/A
10:00 AM84 °FPartly sunny.5 mph74%29.83 "HgN/A
9:00 AM81 °FScattered clouds.5 mph84%29.83 "HgN/A
Weather by CustomWeather, © 2016

See weather overviewHow to use our weather pages